User: anonymous   Login
Location: Orange Harbor Mobile Home Park
(26.6923°N, 81.7937°W)
Time: 07:45:49
(UTC+00:00)
Language:

Cosmos 158 Rocket - Orbit

View from above orbital plane
View from above orbital plane
View from above satellite
View from above satellite

Ground track
Ground track

The orbit data is extracted from the following two-line orbital elements,

1 02802U 67045B   20336.71315345  .00000031  00000-0  16634-4 0  9995
2 02802  74.0117 334.2913 0065025  84.7526 276.1047 14.43787372811327
Epoch (UTC): 01 December 2020 17:06:56
Eccentricity: 0.0065025
inclination: 74.0117°
perigee height: 699 km
apogee height: 792 km
right ascension of ascending node: 334.2913°
argument of perigee: 84.7526°
revolutions per day: 14.43787372
mean anomaly at epoch: 276.1047°
orbit number at epoch: 81132

The dashed part of the orbit path shows where the satellite is in the earth's shadow,  

DLR